EW4427 Weather Reports


time (UTC)temp
F
wind
direction
speed
knots
gust
knots
rain 1hr
in
rain 24hr
in
rain mn
in
humidity
%
barometer
mb
20260503232045 65 223 0.9 5.2 0.00 0.00 0.00 48 1004.1
20260503231551 65 226 1.7 7.0 0.00 0.00 0.00 49 1004.2
20260503231043 65 0 1.7 7.0 0.00 0.00 0.00 49 1004.2
20260503230544 65 211 1.7 8.7 0.00 0.00 0.00 47 1004.2
20260503225545 66 185 2.6 6.1 0.00 0.00 0.00 47 1004.3
20260503225047 65 218 0.9 6.1 0.00 0.00 0.00 48 1004.3
20260503224548 65 226 2.6 7.8 0.00 0.00 0.00 47 1004.2
20260503224048 66 0 1.7 7.8 0.00 0.00 0.00 48 1004.2
20260503223547 66 209 1.7 7.8 0.00 0.00 0.00 48 1004.3
20260503223057 65 250 2.6 7.8 0.00 0.00 0.00 48 1004.5
20260503222546 66 210 2.6 7.0 0.00 0.00 0.00 48 1004.5
20260503222045 66 0 0.9 8.7 0.00 0.00 0.00 48 1004.6
20260503221557 65 207 0.9 9.6 0.00 0.00 0.00 49 1004.6
20260503221047 65 207 4.3 13.9 0.00 0.00 0.00 50 1004.5
20260503220547 65 238 3.5 13.9 0.00 0.00 0.00 48 1004.5
20260503220057 65 240 4.3 10.4 0.00 0.00 0.00 49 1004.5
20260503215545 65 250 1.7 10.4 0.00 0.00 0.00 49 1004.5
20260503215047 65 188 5.2 8.7 0.00 0.00 0.00 49 1004.5
20260503214549 65 215 2.6 10.4 0.00 0.00 0.00 50 1004.5
20260503214044 65 235 5.2 10.4 0.00 0.00 0.00 48 1004.7
20260503213547 65 228 3.5 10.4 0.00 0.00 0.00 48 1004.8
20260503213056 65 260 1.7 10.4 0.00 0.00 0.00 48 1005.0
20260503212544 65 225 4.3 11.3 0.00 0.00 0.00 48 1004.7
20260503212044 66 207 4.3 11.3 0.00 0.00 0.00 49 1004.9
20260503211554 66 220 0.9 11.3 0.00 0.00 0.00 49 1005.0
20260503211044 65 205 2.6 16.5 0.00 0.00 0.00 51 1005.1
20260503210546 64 196 4.3 17.4 0.00 0.00 0.00 49 1005.0
20260503210052 65 234 5.2 17.4 0.00 0.00 0.00 49 1005.2
20260503205544 66 209 6.1 13.9 0.00 0.00 0.00 48 1005.2
20260503205046 66 229 6.1 13.9 0.00 0.00 0.00 46 1005.3
20260503204554 67 249 4.3 11.3 0.00 0.00 0.00 46 1005.3
20260503204045 66 234 3.5 17.4 0.00 0.00 0.00 49 1005.3
20260503203547 65 202 4.3 18.2 0.00 0.00 0.00 51 1005.4
20260503203059 65 214 6.1 18.2 0.00 0.00 0.00 52 1005.6
20260503202545 65 208 5.2 12.2 0.00 0.00 0.00 51 1005.7
20260503202047 64 223 6.1 13.9 0.00 0.00 0.00 53 1006.0
20260503201555 63 192 7.0 17.4 0.00 0.00 0.00 54 1006.1
20260503201046 64 259 6.1 19.1 0.00 0.00 0.00 53 1006.3
20260503200546 63 192 8.7 19.1 0.00 0.00 0.00 55 1006.3
20260503200100 63 198 7.0 15.6 0.00 0.00 0.00 54 1006.5
20260503195544 64 198 7.0 14.8 0.00 0.00 0.00 53 1006.6
20260503195044 64 221 6.1 11.3 0.00 0.00 0.00 54 1006.5
20260503194600 64 196 4.3 13.0 0.00 0.00 0.00 53 1006.6
20260503194047 63 259 6.1 18.2 0.00 0.00 0.00 54 1006.7
20260503193548 63 190 2.6 18.2 0.00 0.00 0.00 53 1006.6
20260503193107 64 196 7.0 13.0 0.00 0.00 0.00 49 1006.8
20260503192546 64 237 4.3 20.9 0.00 0.00 0.00 49 1006.7
20260503192049 64 261 7.8 20.9 0.00 0.00 0.00 49 1006.9
20260503191604 64 198 6.1 19.1 0.00 0.00 0.00 51 1006.7
20260503191046 63 215 8.7 19.1 0.00 0.00 0.00 51 1006.7
20260503190545 64 205 7.0 18.2 0.00 0.00 0.00 49 1006.9
20260503190053 64 225 5.2 13.0 0.00 0.00 0.00 52 1006.8
20260503185545 63 196 6.1 17.4 0.00 0.00 0.00 51 1006.7
20260503185042 62 199 9.6 17.4 0.00 0.00 0.00 53 1006.9
20260503184554 63 224 7.8 15.6 0.00 0.00 0.00 52 1006.8
20260503184047 64 217 6.1 13.9 0.00 0.00 0.00 48 1006.8
20260503183547 63 255 4.3 13.0 0.00 0.00 0.00 48 1006.9
20260503183109 63 211 7.8 13.9 0.00 0.00 0.00 52 1007.1
20260503182547 62 249 8.7 15.6 0.00 0.00 0.00 48 1007.1
20260503182047 62 190 7.0 16.5 0.00 0.00 0.00 51 1007.1
20260503181618 61 223 9.6 20.9 0.00 0.00 0.00 51 1007.3
20260503181047 61 223 7.0 20.9 0.00 0.00 0.00 55 1007.4
20260503180547 60 217 12.2 20.0 0.00 0.00 0.00 58 1007.4
20260503180054 59 203 8.7 19.1 0.00 0.00 0.00 59 1007.5
20260503175547 59 180 9.6 17.4 0.00 0.00 0.00 61 1007.6
20260503175048 58 198 8.7 17.4 0.00 0.00 0.00 61 1007.6
20260503174554 58 214 9.6 18.2 0.00 0.00 0.00 62 1007.7
20260503174046 59 208 7.8 20.9 0.00 0.00 0.00 62 1007.8
20260503173546 58 189 5.2 22.6 0.00 0.00 0.00 62 1008.0
20260503173058 57 216 10.4 22.6 0.00 0.00 0.00 64 1008.1
20260503172548 57 182 9.6 20.0 0.00 0.00 0.00 62 1008.3
20260503172048 57 190 7.0 20.0 0.00 0.00 0.00 64 1008.3
20260503171556 57 186 11.3 19.1 0.00 0.00 0.00 65 1008.4
20260503171047 57 197 7.8 14.8 0.00 0.00 0.00 65 1008.5
20260503170547 56 214 7.0 14.8 0.00 0.00 0.00 64 1008.6
20260503150546 56 218 5.2 13.9 0.00 0.00 0.00 62 1010.4
20260503131045 52 257 2.6 6.1 0.00 0.00 0.00 60 1011.3
20260503130545 51 202 1.7 8.7 0.00 0.00 0.00 61 1011.3
20260503110545 48 187 2.6 7.0 0.00 0.00 0.00 59 1011.1
20260503100104 48 208 2.6 6.1 0.00 0.00 0.00 59 1011.4
20260503081556 49 184 0.9 7.0 0.00 0.00 0.00 54 1012.3
20260503081047 49 0 1.7 7.0 0.00 0.00 0.00 53 1012.3
20260503080549 49 180 1.7 8.7 0.00 0.00 0.00 55 1012.3
20260503072546 48 234 1.7 5.2 0.00 0.00 0.00 57 1012.4
20260503072046 48 206 1.7 4.3 0.00 0.00 0.00 56 1012.5
20260503071605 48 206 0.9 4.3 0.00 0.00 0.00 58 1012.5
20260503071045 48 0 1.7 4.3 0.00 0.00 0.00 57 1012.5
20260503070546 48 219 0.9 4.3 0.00 0.00 0.00 58 1012.6
20260503070113 48 213 0.9 4.3 0.00 0.00 0.00 57 1012.7
20260503060119 47 202 1.7 4.3 0.00 0.00 0.00 59 1013.1
20260503055049 47 202 0.9 4.3 0.00 0.00 0.00 59 1013.2
20260503054559 47 211 0.9 4.3 0.00 0.00 0.00 58 1013.3
20260503054045 47 207 0.9 4.3 0.00 0.00 0.00 59 1013.2
20260503053548 47 223 0.9 3.5 0.00 0.00 0.00 58 1013.3
20260503053053 47 214 0.9 3.5 0.00 0.00 0.00 59 1013.3
20260503052545 47 214 1.7 3.5 0.00 0.00 0.00 59 1013.4
20260503052046 47 231 0.9 3.5 0.00 0.00 0.00 59 1013.4
20260503051555 47 205 0.9 3.5 0.00 0.00 0.00 60 1013.5
20260503051046 47 211 0.9 3.5 0.00 0.00 0.00 60 1013.6
20260503050546 47 0 0.9 3.5 0.00 0.00 0.00 59 1013.5
20260503050055 47 212 1.7 3.5 0.00 0.00 0.00 59 1013.5
20260503045546 47 212 0.9 3.5 0.00 0.00 0.00 60 1013.6
20260503045045 47 230 1.7 3.5 0.00 0.00 0.00 60 1013.6
20260503044550 47 205 1.7 3.5 0.00 0.00 0.00 59 1013.7
20260503044049 47 213 1.7 3.5 0.00 0.00 0.00 58 1013.6
20260503043545 47 211 0.9 4.3 0.00 0.00 0.00 59 1013.6
20260503043053 47 0 0.9 4.3 0.00 0.00 0.00 59 1013.5
20260503042545 47 236 0.9 4.3 0.00 0.00 0.00 59 1013.8
20260503042045 47 223 1.7 4.3 0.00 0.00 0.00 58 1013.6
20260503041554 47 207 1.7 4.3 0.00 0.00 0.00 61 1013.7
20260503041046 47 211 1.7 4.3 0.00 0.00 0.00 58 1013.7
20260503040546 48 236 1.7 4.3 0.00 0.00 0.00 59 1013.8
20260503040051 48 0 1.7 4.3 0.00 0.00 0.00 59 1013.8
20260503035545 48 225 0.9 4.3 0.00 0.00 0.00 59 1013.9
20260503035048 48 213 1.7 3.5 0.00 0.00 0.00 58 1013.9
20260503034606 48 209 1.7 3.5 0.00 0.00 0.00 58 1013.9
20260503034049 48 209 0.9 3.5 0.00 0.00 0.00 58 1013.9
20260503033547 48 213 0.9 3.5 0.00 0.00 0.00 58 1014.0
20260503033057 48 188 0.9 4.3 0.00 0.00 0.00 58 1014.0
20260503032547 48 209 0.9 4.3 0.00 0.00 0.00 60 1013.9
20260503032046 48 0 0.0 3.5 0.00 0.00 0.00 58 1014.0
20260503031556 48 0 0.9 3.5 0.00 0.00 0.00 58 1014.1
20260503031046 48 211 0.9 3.5 0.00 0.00 0.00 60 1014.1
20260503030544 48 216 0.9 3.5 0.00 0.00 0.00 60 1014.1
20260503030056 47 209 0.9 3.5 0.00 0.00 0.00 59 1014.1
20260503025547 47 219 0.9 3.5 0.00 0.00 0.00 61 1014.2
20260503025044 46 224 0.9 3.5 0.00 0.00 0.00 63 1014.2
20260503024550 45 215 0.9 2.6 0.00 0.00 0.00 69 1014.3
20260503024042 43 0 0.0 1.7 0.00 0.00 0.00 77 1014.3
20260503023542 43 0 0.0 0.0 0.00 0.00 0.00 75 1014.2
20260503023057 43 0 0.0 0.0 0.00 0.00 0.00 74 1014.3
20260503022544 43 0 0.0 0.0 0.00 0.00 0.00 73 1014.3
20260503022046 43 0 0.0 0.0 0.00 0.00 0.00 72 1014.4
20260503021549 43 0 0.0 0.0 0.00 0.00 0.00 71 1014.3
20260503021042 44 0 0.0 0.0 0.00 0.00 0.00 71 1014.3
20260503020542 44 0 0.0 0.0 0.00 0.00 0.00 70 1014.3
20260503020045 44 0 0.0 0.0 0.00 0.00 0.00 70 1014.2
20260503015542 44 0 0.0 0.0 0.00 0.00 0.00 69 1014.2
20260503015045 45 0 0.0 0.0 0.00 0.00 0.00 68 1014.2
20260503014549 45 0 0.0 0.0 0.00 0.00 0.00 67 1014.1
20260503014042 45 0 0.0 0.0 0.00 0.00 0.00 67 1014.1
20260503013542 46 0 0.0 0.0 0.00 0.00 0.00 65 1014.2
20260503013054 47 0 0.0 0.0 0.00 0.00 0.00 64 1014.1
20260503012545 47 0 0.0 0.0 0.00 0.00 0.00 62 1014.1
20260503012042 48 0 0.0 0.0 0.00 0.00 0.00 62 1014.1
20260503011604 50 0 0.0 0.9 0.00 0.00 0.00 59 1014.1
20260503011045 51 0 0.0 3.5 0.00 0.00 0.00 57 1014.1
20260503010546 52 0 0.9 3.5 0.00 0.00 0.00 50 1014.1
20260503010117 52 220 0.0 2.6 0.00 0.00 0.00 49 1014.1
20260503005542 52 0 0.0 2.6 0.00 0.00 0.00 49 1014.0
20260503005043 52 213 0.9 2.6 0.00 0.00 0.00 48 1014.1
20260503004616 53 0 0.9 2.6 0.00 0.00 0.00 47 1014.1
20260503004041 53 207 0.0 3.5 0.00 0.00 0.00 47 1014.0
20260503003542 53 0 0.0 3.5 0.00 0.00 0.00 47 1014.1
20260503003049 53 0 0.0 1.7 0.00 0.00 0.00 47 1014.1
20260503002544 53 0 0.0 1.7 0.00 0.00 0.00 45 1014.1
20260503002042 53 0 0.0 2.6 0.00 0.00 0.00 45 1014.3
20260503001551 53 0 0.0 4.3 0.00 0.00 0.00 44 1014.2
20260503001042 54 0 0.9 4.3 0.00 0.00 0.00 45 1014.2
20260503000541 54 0 1.7 3.5 0.00 0.00 0.00 44 1014.3
20260503000050 54 0 0.0 3.5 0.00 0.00 0.00 43 1014.4
20260502235541 54 221 0.0 2.6 0.00 0.00 0.00 44 1014.3
20260502235045 54 0 0.0 1.7 0.00 0.00 0.00 43 1014.4
20260502234554 54 0 0.0 1.7 0.00 0.00 0.00 43 1014.4
20260502234042 54 0 0.0 2.6 0.00 0.00 0.00 42 1014.5
20260502233545 54 0 0.0 3.5 0.00 0.00 0.00 42 1014.5
20260502233052 54 0 0.9 4.3 0.00 0.00 0.00 43 1014.6
20260502232545 54 0 0.9 4.3 0.00 0.00 0.00 44 1014.6